Chicago Midway, IL

4:13 PM CST on December 12, 2019 (GMT -0600)
Chicago-Midway

Weather History for KMDW - October, 2019

Change the Weather History Date:

Monday, October 7, 2019

  Actual Average Record
Temperature  
Mean Temperature 60 °F 58 °F  
Max Temperature 71 °F 66 °F 88 °F (2007)
Min Temperature 48 °F 48 °F 31 °F (2000)
Degree Days  
Heating Degree Days 5 8  
Month to date heating degree days 33 52  
Since 1 July heating degree days 34 134  
Cooling Degree Days 0 1  
Month to date cooling degree days 21 7  
Year to date cooling degree days 1131 1036  
Growing Degree Days 10 (Base 50)    
Moisture  
Dew Point 43 °F    
Average Humidity 55    
Maximum Humidity 83    
Minimum Humidity 22    
Precipitation  
Precipitation 0.00 in 0.10 in 1.26 in (1930)
Month to date precipitation 0.87 0.70  
Year to date precipitation 38.69 30.56  
Sea Level Pressure  
Sea Level Pressure 30.17 in    
Wind  
Wind Speed 6 mph (West)    
Max Wind Speed 17 mph    
Max Gust Speed 23 mph    
Visibility 10 miles    
Events      
T = Trace of Precipitation, MM = Missing Value Source: NWS Daily Summary

Daily Weather History Graph

Daily Weather History Graph

Search for Another Location

Airport or City:

Astronomy

Oct. 07, 2019 Rise Set
Actual Time 6:54 AM CDT 6:22 PM CDT
Civil Twilight 6:26 AM CDT 6:50 PM CDT
Nautical Twilight 5:54 AM CDT 7:22 PM CDT
Astronomical Twilight 5:21 AM CDT 7:55 PM CDT
Moon 3:50 PM CDT (10/7) 12:40 AM CDT (10/7)
Length of Visible Light 12h 24m
Length of Day
11h 28m
Waxing Gibbous, 69% of the Moon is Illuminated
Oct 7
Waxing Gibbous
Oct 13
Full
Oct 21
Last Quarter
Oct 27
New
Nov 4
First Quarter

Hourly Weather History & Observations

Time (CDT) Temp. Dew Point Humidity Pressure Visibility Wind Dir Wind Speed Gust Speed Precip Events Conditions
12:53 AM 55.9 °F 46.0 °F 69% 30.13 in 10.0 mi WSW 8.1 mph - N/A   Overcast
1:53 AM 55.0 °F 46.0 °F 72% 30.13 in 10.0 mi West 6.9 mph - N/A   Overcast
2:53 AM 54.0 °F 46.0 °F 75% 30.14 in 10.0 mi West 8.1 mph - N/A   Mostly Cloudy
3:53 AM 54.0 °F 45.0 °F 72% 30.15 in 10.0 mi West 6.9 mph - N/A   Scattered Clouds
4:53 AM 51.1 °F 44.1 °F 77% 30.16 in 10.0 mi West 5.8 mph - N/A   Partly Cloudy
5:53 AM 50.0 °F 45.0 °F 83% 30.17 in 10.0 mi SW 4.6 mph - N/A   Partly Cloudy
6:53 AM 50.0 °F 45.0 °F 83% 30.16 in 10.0 mi Calm Calm - N/A   Partly Cloudy
7:53 AM 51.1 °F 45.0 °F 80% 30.17 in 10.0 mi SW 6.9 mph - N/A   Partly Cloudy
8:53 AM 54.0 °F 46.0 °F 75% 30.18 in 10.0 mi WSW 4.6 mph - N/A   Partly Cloudy
9:53 AM 61.0 °F 45.0 °F 56% 30.17 in 10.0 mi WSW 8.1 mph - N/A   Partly Cloudy
10:53 AM 64.9 °F 43.0 °F 45% 30.18 in 10.0 mi West 10.4 mph - N/A   Partly Cloudy
11:53 AM 66.9 °F 44.1 °F 44% 30.18 in 10.0 mi Variable 6.9 mph - N/A   Partly Cloudy
12:53 PM 69.1 °F 42.1 °F 38% 30.17 in 10.0 mi West 10.4 mph 17.3 mph N/A   Partly Cloudy
1:53 PM 70.0 °F 39.9 °F 33% 30.15 in 10.0 mi WNW 13.8 mph 23.0 mph N/A   Partly Cloudy
2:53 PM 71.1 °F 39.0 °F 31% 30.14 in 10.0 mi NW 13.8 mph - N/A   Partly Cloudy
3:53 PM 70.0 °F 39.9 °F 33% 30.14 in 10.0 mi West 13.8 mph 19.6 mph N/A   Partly Cloudy
4:53 PM 69.1 °F 39.0 °F 33% 30.15 in 10.0 mi West 6.9 mph - N/A   Partly Cloudy
5:53 PM 68.0 °F 39.9 °F 36% 30.15 in 10.0 mi WNW 8.1 mph - N/A   Clear
6:53 PM 63.0 °F 39.9 °F 43% 30.17 in 10.0 mi West 4.6 mph - N/A   Clear
7:53 PM 59.0 °F 42.1 °F 53% 30.19 in 10.0 mi WNW 4.6 mph - N/A   Clear
8:53 PM 61.0 °F 42.1 °F 50% 30.19 in 10.0 mi Calm Calm - N/A   Clear
9:53 PM 57.9 °F 43.0 °F 58% 30.20 in 10.0 mi Calm Calm - N/A   Clear
10:53 PM 59.0 °F 43.0 °F 55% 30.21 in 10.0 mi Calm Calm - N/A   Clear
11:53 PM 55.0 °F 44.1 °F 67% 30.20 in 10.0 mi Calm Calm - N/A   Clear